Toktogul

Kyrgyzstan     41˚52′18″N   72˚56′15″E
temp.,
°C
wind,
m/s
gust,
m/s
humid.,
%
clouds,
%
prec.,
mm/h
press.,
hPa
HPBL,
m
2 december, wed
wed200:00wnw11440 0.0 1031325
03:00wnw114899 0.0 1030319
06:00nw1147100 0.0 1030283
09:00ene0048100 0.0 1030236
12:00+2˚n0043100 0.0 1028310
15:00+3˚wnw1045100 0.0 1026269
18:00+1˚sw005267 0.0 1027218
21:00+2˚ene1156100 0.1 1028219
3 december, thu
thu300:00+2˚ne1156100 0.6 1027286
03:00+1˚nnw016094 0.1 1027304
06:00ene016589 0.2 1028227
09:00ene116987 0.0 1028205
12:00+1˚nw117287 0.1 1027262
15:00+2˚wnw116992 0.1 1025328
18:00+2˚ssw117592 0.2 1026190
21:00+1˚e0074100 0.1 1026275
4 december, fri
fri400:00+1˚wnw1187100 0.1 1025152
03:00n1196100 0.2 102488
06:00ene2298100 1.2 1023130
09:00ne1198100 2.0 1024102
12:00+1˚n2299100 4.3 1024132
15:00+1˚ne2399100 1.8 1024162
18:00+1˚nne1298100 3.5 102693
21:00+1˚se0192100 1.3 1027126
5 december, sat
sat500:00w0193100 2.8 1027110
03:00w2294100 1.3 1028162
06:00wnw2395100 2.3 1028218
09:00−1˚wnw2387100 0.8 1030303
12:00nw2280100 1.1 1028518
15:00+1˚n228299 0.3 1027468
18:00−1˚nw1297100 2.1 102879
21:00−1˚w2395100 1.3 1029205
6 december, sun
sun600:00−2˚w1284100 2.1 1030239
03:00−2˚wnw1279100 0.4 1031337
06:00−3˚wnw2294100 0.9 1031166
09:00−2˚wnw2296100 0.6 1032193
12:00−2˚nw2296100 0.9 1030257
15:00−1˚n118694 0.2 1029353
18:00−2˚ene027789 0.3 1031359
21:00−2˚ssw116975 0.1 1031353